sat.trackr.live / text

‹ back to catalog

APEX ARIES 1

NORAD 59129 · 2024-043AH

PAYLOAD ACTIVE UNKNOWN

§ Identity

Operator
Country
US
Launch date
2024-03-04
Launch site
AFWTR
Launch vehicle
Mass (kg)
RCS (m²)

External: N2YO · Heavens-Above · Gunter

§ Orbital elements

Epoch: 2026-05-24T23:32:24.880128Z

Period
92.63 min
Inclination
97.5446°
Eccentricity
0.0004325
Mean motion
15.54542702 rev/d
Perigee alt
400.5 km
Apogee alt
406.4 km
Semi-major
6,781.6 km
B*
3.2845e-4
RAAN
293.9334°
Arg perigee
286.0845°
Mean anomaly
73.9932°
Rev number
12,431

§ Raw data

APEX ARIES 11 59129U 24043AH  26144.98084352  .00021586  00000+0  32845-3 0  99912 59129  97.5446 293.9334 0004325 286.0845  73.9932 15.54542702124312

JSON: /api/v1/satellites/59129 · /tle

For live sub-satellite position, see the globe view (requires WebGL).

§ Visibility from observer

Set your observer location to see the next 7 days of passes ≥ 10°. The values pass through the URL so the page stays shareable.

No JS? Fill the form by hand. The geolocation button needs JavaScript.

§ Radio — SatNOGS DB

ModeDescriptionDownlinkUplink
FSK Mode U - FSK9k6 - Downlink 400.500 MHz
FM S-band telemetry 2.288 GHz

2 transmitters · refreshed weekly from db.satnogs.org